Weather History for EHBK - January, 2014

Change the Weather History Date:

Sunday, January 12, 2014

  Actual Average (EBBL) Record (EBBL)
Temperature  
Mean Temperature 37 °F -  
Max Temperature 44 °F 41 °F - (-1)
Min Temperature 30 °F 31 °F - (-1)
Degree Days  
Heating Degree Days 28    
Moisture  
Dew Point 32 °F    
Average Humidity 82    
Maximum Humidity 100    
Minimum Humidity 51    
Precipitation  
Precipitation 0.00 in 0.07 in - ()
Sea Level Pressure  
Sea Level Pressure 30.17 in    
Wind  
Wind Speed 5 mph ()    
Max Wind Speed 9 mph    
Max Gust Speed -    
Visibility 6.2 miles    
Events      
Averages and records for this station are not official NWS values.
T = Trace of Precipitation, MM = Missing Value Source: Averaged Metar Reports

Daily Weather History Graph

Daily Weather History Graph

Search for Another Location

Airport or City:

Trip Planner

Search our weather history database for the weather conditions in past years. The results will help you decide how hot, cold, wet, or windy it might be!

Date:

Astronomy

Jan. 12, 2014 Rise Set
Actual Time 8:35 AM CET 4:55 PM CET
Civil Twilight 7:57 AM CET 5:33 PM CET
Nautical Twilight 7:15 AM CET 6:14 PM CET
Astronomical Twilight 6:36 AM CET 6:54 PM CET
Moon 2:14 PM CET (1/12) 5:16 AM CET (1/12)
Length of Visible Light 9h 36m
Length of Day
8h 19m
Waxing Gibbous, 88% of the Moon is Illuminated
Jan 12
Waxing Gibbous
Jan 16
Full
Jan 24
Last Quarter
Jan 30
New
Feb 6
First Quarter

Hourly Weather History & Observations

Time (CET) Temp. Windchill Dew Point Humidity Pressure Visibility Wind Dir Wind Speed Gust Speed Precip Events Conditions
12:00 AM 35 °F - 34 °F 93% 30.28 in 6 mi SW 4.5 mph - -   Overcast
12:25 AM 35.6 °F 30.7 °F 33.8 °F 93% 30.24 in 6.2 mi SSW 5.8 mph - N/A   Overcast
12:55 AM 35.6 °F 31.7 °F 33.8 °F 93% 30.24 in 6.2 mi SSW 4.6 mph - N/A   Mostly Cloudy
1:00 AM 35 °F - 34 °F 92% 30.29 in 7 mi SSW 4.5 mph - -   Partly Cloudy
1:25 AM 35.6 °F 29.9 °F 33.8 °F 93% 30.24 in 6.2 mi SSW 6.9 mph - N/A   Overcast
1:55 AM 33.8 °F 27.7 °F 32.0 °F 93% 30.24 in 6.2 mi SW 6.9 mph - N/A   Mostly Cloudy
2:00 AM 34 °F - 33 °F 95% 30.30 in 8 mi SW 6.7 mph - -   Partly Cloudy
2:25 AM 33.8 °F 27.0 °F 32.0 °F 93% 30.27 in 6.2 mi SW 8.1 mph - N/A   Partly Cloudy
2:55 AM 33.8 °F 26.4 °F 32.0 °F 93% 30.27 in 6.2 mi SSW 9.2 mph - N/A   Unknown
3:00 AM 33 °F - 32 °F 96% 30.31 in 6 mi SSW 8.9 mph - -   Mist
3:25 AM 33.8 °F 27.0 °F 33.8 °F 100% 30.27 in 5.0 mi SSW 8.1 mph - N/A   Unknown
3:55 AM 33.8 °F 27.7 °F 32.0 °F 93% 30.27 in 3.7 mi SSW 6.9 mph - N/A   Partly Cloudy
4:00 AM 33 °F - 33 °F 98% 30.32 in 4 mi SSW 8.9 mph - -   Mist
4:25 AM 33.8 °F 27.0 °F 33.8 °F 100% 30.27 in 3.7 mi SSW 8.1 mph - N/A   Scattered Clouds
4:55 AM 33.8 °F 27.0 °F 33.8 °F 100% 30.27 in 3.1 mi SSW 8.1 mph - N/A   Mostly Cloudy
5:00 AM 34 °F - 33 °F 94% 30.32 in 3 mi SSW 8.9 mph - -   Mist
5:25 AM 33.8 °F 27.7 °F 32.0 °F 93% 30.27 in 2.8 mi SSW 6.9 mph - N/A   Mist
5:55 AM 32.0 °F 26.4 °F 32.0 °F 100% 30.27 in - South 5.8 mph - N/A   Mist
6:00 AM 33 °F - 32 °F 95% 30.31 in 3 mi South 4.5 mph - -   Mist
6:25 AM 33.8 °F 28.6 °F 32.0 °F 93% 30.27 in - South 5.8 mph - N/A   Mist
6:55 AM 32.0 °F 26.4 °F 32.0 °F 100% 30.27 in - South 5.8 mph - N/A   Mist
7:00 AM 32 °F - 32 °F 98% 30.30 in 3 mi South 4.5 mph - -   Mist
7:25 AM 32.0 °F 27.5 °F 32.0 °F 100% 30.27 in 3.1 mi South 4.6 mph - N/A   Mist
7:55 AM 32.0 °F 27.5 °F 32.0 °F 100% 30.27 in - South 4.6 mph - N/A   Mist
8:00 AM 32 °F - 32 °F 98% 30.30 in 3 mi South 4.5 mph - -   Mist
8:25 AM 32.0 °F 27.5 °F 32.0 °F 100% 30.24 in 2.2 mi South 4.6 mph - N/A   Mist
8:55 AM 32.0 °F 27.5 °F 30.2 °F 93% 30.24 in - South 4.6 mph - N/A   Mist
9:00 AM 32 °F - 31 °F 97% 30.29 in 3 mi South 6.7 mph - -   Mist
9:25 AM 32.0 °F 27.5 °F 32.0 °F 100% 30.24 in - SSE 4.6 mph - N/A   Mist
9:55 AM 33.8 °F 30.8 °F 33.8 °F 100% 30.24 in 3.1 mi SSE 3.5 mph - N/A   Mist
10:00 AM 35 °F - 34 °F 92% 30.29 in 3 mi SSE 4.5 mph - -   Mist
10:25 AM 35.6 °F 30.7 °F 33.8 °F 93% 30.24 in 5.6 mi SSE 5.8 mph - N/A   Unknown
10:55 AM 37.4 °F 33.8 °F 33.8 °F 87% 30.24 in 6.2 mi SSE 4.6 mph - N/A   Unknown
11:00 AM 38 °F - 35 °F 84% 30.29 in 7 mi SSE 4.5 mph - -  
11:25 AM 39.2 °F 35.9 °F 35.6 °F 87% 30.24 in 6.2 mi SSE 4.6 mph - N/A   Unknown
11:55 AM 41.0 °F 38.0 °F 35.6 °F 81% 30.24 in 6.2 mi SSE 4.6 mph - N/A   Unknown
12:00 PM 41 °F - 36 °F 75% 30.26 in 12 mi SSE 4.5 mph - -  
12:25 PM 42.8 °F 41.1 °F 37.4 °F 81% 30.21 in 6.2 mi SSE 3.5 mph - N/A   Unknown
12:55 PM 42.8 °F 39.3 °F 35.6 °F 76% 30.18 in 6.2 mi ESE 5.8 mph - N/A   Unknown
1:00 PM 44 °F - 36 °F 63% 30.23 in 16 mi ESE 4.5 mph - -   Partly Cloudy
1:25 PM 44.6 °F 42.2 °F 35.6 °F 71% 30.18 in 6.2 mi ESE 4.6 mph - N/A   Unknown
1:55 PM 44.6 °F 41.4 °F 35.6 °F 71% 30.18 in 6.2 mi ESE 5.8 mph - N/A   Unknown
2:00 PM 44 °F - 35 °F 62% 30.20 in 17 mi ESE 4.5 mph - -  
2:25 PM 44.6 °F 41.4 °F 33.8 °F 66% 30.15 in 6.2 mi East 5.8 mph - N/A   Unknown
2:55 PM 44.6 °F 42.2 °F 35.6 °F 71% 30.15 in 6.2 mi East 4.6 mph - N/A   Unknown
3:00 PM 44 °F - 33 °F 54% 30.17 in 19 mi ESE 4.5 mph - -  
3:25 PM 44.6 °F 41.4 °F 33.8 °F 66% 30.12 in 6.2 mi ESE 5.8 mph - N/A   Unknown
3:55 PM 42.8 °F 40.1 °F 33.8 °F 70% 30.12 in 6.2 mi SE 4.6 mph - N/A   Unknown
4:00 PM 43 °F - 33 °F 57% 30.15 in 22 mi SE 4.5 mph - -  
4:25 PM 42.8 °F 41.1 °F 32.0 °F 66% 30.09 in 6.2 mi SE 3.5 mph - N/A   Unknown
4:55 PM 41.0 °F 38.0 °F 32.0 °F 70% 30.06 in 6.2 mi SSE 4.6 mph - N/A   Unknown
5:00 PM 41 °F - 32 °F 61% 30.11 in 25 mi SSE 4.5 mph - -  
5:25 PM 39.2 °F 37.0 °F 32.0 °F 75% 30.06 in 6.2 mi South 3.5 mph - N/A   Unknown
5:55 PM 37.4 °F 34.9 °F 32.0 °F 81% 30.06 in 6.2 mi South 3.5 mph - N/A   Unknown
6:00 PM 38 °F - 31 °F 68% 30.09 in 22 mi SSE 4.5 mph - -   Scattered Clouds
6:25 PM 39.2 °F 35.0 °F 30.2 °F 70% 30.04 in 6.2 mi SSE 5.8 mph - N/A   Unknown
6:55 PM 37.4 °F 32.1 °F 28.4 °F 70% 30.04 in 6.2 mi SE 6.9 mph - N/A   Unknown
7:00 PM 35 °F - 29 °F 71% 30.06 in 25 mi ESE 6.7 mph - -   Partly Cloudy
7:25 PM 37.4 °F 33.8 °F 26.6 °F 65% 30.01 in 6.2 mi ESE 4.6 mph - N/A   Unknown
7:55 PM 33.8 °F - 28.4 °F 81% 30.01 in 6.2 mi ESE 2.3 mph - N/A   Unknown
8:00 PM 33 °F - 28 °F 74% 30.04 in 22 mi ESE 4.5 mph - -  
8:25 PM 30.2 °F 26.7 °F 26.6 °F 86% 30.01 in 6.2 mi ESE 3.5 mph - N/A   Unknown
8:55 PM 35.6 °F 29.2 °F 26.6 °F 70% 29.98 in 6.2 mi SE 8.1 mph - N/A   Unknown
9:00 PM 38 °F - 26 °F 51% 30.01 in 22 mi SE 8.9 mph - -   Scattered Clouds
9:25 PM 37.4 °F 30.8 °F 26.6 °F 65% 29.98 in 6.2 mi SSE 9.2 mph - N/A   Unknown
9:55 PM 39.2 °F 34.2 °F 28.4 °F 65% 29.95 in 6.2 mi SE 6.9 mph - N/A   Unknown
10:00 PM 38 °F - 29 °F 59% 29.99 in 28 mi SSE 6.7 mph - -  
10:25 PM 37.4 °F 32.1 °F 28.4 °F 70% 29.95 in 6.2 mi SSE 6.9 mph - N/A   Unknown
10:55 PM 37.4 °F 32.8 °F 30.2 °F 75% 29.92 in 6.2 mi SSW 5.8 mph - N/A   Unknown
11:00 PM 35 °F - 29 °F 71% 29.96 in 25 mi SSW 8.9 mph - -  
11:25 PM 35.6 °F 29.9 °F 30.2 °F 81% 29.92 in 6.2 mi SW 6.9 mph - N/A   Unknown
11:55 PM 35.6 °F 29.2 °F 30.2 °F 81% 29.92 in 6.2 mi SW 8.1 mph - N/A   Unknown